FW1308 Weather Reports


time (UTC)temp
C
wind
direction
speed
KPH
gust
KPH
rain 1hr
cm
rain 24hr
cm
rain mn
cm
humidity
%
barometer
mb
20260508060028 10 194 0.0 1.6 0.00 0.00 0.00 85 1017.1
20260508054526 10 143 0.0 3.2 0.00 0.00 0.00 85 1017.0
20260508053025 10 158 0.0 1.6 0.00 0.00 0.00 85 1016.9
20260508051524 10 137 0.0 4.8 0.00 0.00 0.00 85 1016.9
20260508050034 10 128 0.0 1.6 0.00 0.00 0.00 85 1016.8
20260508044521 10 148 0.0 3.2 0.00 0.00 0.00 85 1016.9
20260508043021 10 154 0.0 6.4 0.00 0.00 0.00 85 1016.9
20260508041521 10 130 0.0 0.0 0.00 0.00 0.00 84 1016.7
20260508040021 10 172 0.0 3.2 0.00 0.00 0.00 84 1016.5
20260508034519 10 39 0.0 3.2 0.00 0.00 0.00 83 1016.4
20260508033013 10 162 0.0 3.2 0.00 0.00 0.00 82 1016.4
20260508031512 11 3 0.0 1.6 0.00 0.00 0.00 80 1016.4
20260508030011 11 176 0.0 3.2 0.00 0.00 0.00 79 1016.5
20260508024510 11 148 3.2 12.9 0.00 0.00 0.00 79 1016.5
20260508023010 11 161 0.0 4.8 0.00 0.00 0.00 80 1016.6
20260508021508 10 158 0.0 3.2 0.00 0.00 0.00 81 1016.5
20260508020008 10 171 1.6 6.4 0.00 0.00 0.00 81 1016.5
20260508014511 10 146 0.0 8.0 0.00 0.00 0.00 81 1016.4
20260508013006 10 144 0.0 6.4 0.00 0.00 0.00 81 1016.4
20260508011504 10 158 0.0 6.4 0.00 0.00 0.00 80 1016.4
20260508010004 11 135 1.6 6.4 0.00 0.00 0.00 80 1016.3
20260508004504 11 173 1.6 8.0 0.00 0.00 0.00 80 1016.3
20260508003001 11 153 0.0 4.8 0.00 0.00 0.00 79 1016.4
20260508001626 11 99 0.0 4.8 0.00 0.00 0.00 79 1016.5
20260508000100 11 182 0.0 4.8 0.00 0.00 0.00 78 1016.6
20260507234556 11 192 0.0 11.3 0.00 0.00 0.00 78 1016.7
20260507233055 11 135 1.6 8.0 0.00 0.00 0.00 77 1016.6
20260507231654 11 138 1.6 8.0 0.00 0.00 0.00 77 1016.6
20260507230052 11 141 3.2 8.0 0.00 0.00 0.00 77 1016.6
20260507224556 11 172 0.0 6.4 0.00 0.00 0.00 76 1016.7
20260507223051 11 172 1.6 9.7 0.00 0.00 0.00 76 1016.8
20260507221549 12 139 1.6 8.0 0.00 0.00 0.00 75 1016.8
20260507220049 12 117 1.6 12.9 0.00 0.00 0.00 75 1016.7
20260507214552 12 133 1.6 11.3 0.00 0.00 0.00 74 1016.7
20260507213048 12 167 1.6 11.3 0.00 0.00 0.00 73 1016.6
20260507211547 12 161 1.6 9.7 0.00 0.00 0.00 73 1016.5
20260507210048 12 150 1.6 9.7 0.00 0.00 0.00 72 1016.6
20260507204552 12 156 0.0 6.4 0.00 0.00 0.00 72 1016.3
20260507203048 12 217 0.0 4.8 0.00 0.00 0.00 71 1016.2
20260507201553 12 42 0.0 8.0 0.00 0.00 0.00 70 1016.1
20260507200045 12 181 0.0 4.8 0.00 0.00 0.00 69 1015.9
20260507194544 13 120 1.6 6.4 0.00 0.00 0.00 67 1015.7
20260507193049 13 146 0.0 6.4 0.00 0.00 0.00 66 1015.6
20260507191550 13 23 1.6 4.8 0.00 0.00 0.00 65 1015.6
20260507190041 13 72 1.6 11.3 0.00 0.00 0.00 64 1015.6
20260507184537 13 315 1.6 9.7 0.00 0.00 0.00 63 1015.6
20260507183037 14 171 1.6 9.7 0.00 0.00 0.00 61 1015.4
20260507181535 14 131 1.6 12.9 0.00 0.00 0.00 59 1015.3
20260507180136 14 272 0.0 9.7 0.00 0.00 0.00 57 1015.2
20260507174541 15 304 1.6 9.7 0.00 0.00 0.00 56 1015.3
20260507173036 15 172 4.8 9.7 0.00 0.00 0.00 56 1015.1
20260507171536 15 1 3.2 9.7 0.00 0.00 0.00 56 1015.3
20260507170041 15 38 1.6 12.9 0.00 0.00 0.00 56 1015.2
20260507164532 15 233 0.0 9.7 0.00 0.00 0.00 53 1015.3
20260507163028 16 149 1.6 6.4 0.00 0.00 0.00 50 1015.2
20260507161527 15 295 3.2 11.3 0.00 0.00 0.00 52 1015.2
20260507160026 16 18 3.2 11.3 0.00 0.00 0.00 50 1015.3
20260507154524 15 19 0.0 11.3 0.00 0.00 0.00 51 1015.4
20260507153023 16 190 3.2 9.7 0.00 0.00 0.00 52 1015.4
20260507151521 15 70 1.6 8.0 0.00 0.00 0.00 54 1015.6
20260507150021 16 217 0.0 8.0 0.00 0.00 0.00 54 1015.7
20260507144517 15 96 0.0 9.7 0.00 0.00 0.00 56 1015.8
20260507143019 15 172 1.6 9.7 0.00 0.00 0.00 54 1015.8
20260507141515 15 187 0.0 9.7 0.00 0.00 0.00 52 1016.1
20260507140013 15 200 1.6 11.3 0.00 0.00 0.00 54 1016.0
20260507134512 15 146 1.6 6.4 0.00 0.00 0.00 54 1016.3
20260507133011 15 161 4.8 8.0 0.00 0.00 0.00 52 1016.2
20260507131514 15 109 3.2 11.3 0.00 0.00 0.00 52 1016.3
20260507130010 15 166 0.0 9.7 0.00 0.00 0.00 55 1016.4
20260507124510 16 3 0.0 9.7 0.00 0.00 0.00 51 1016.5
20260507123007 16 188 4.8 17.7 0.00 0.00 0.00 52 1016.5
20260507121507 16 172 1.6 9.7 0.00 0.00 0.00 55 1016.5
20260507120009 16 126 3.2 9.7 0.00 0.00 0.00 56 1016.7
20260507114501 15 6 3.2 12.9 0.00 0.00 0.00 59 1016.8
20260507113102 15 330 4.8 9.7 0.00 0.00 0.00 57 1016.8
20260507111607 15 186 3.2 11.3 0.00 0.00 0.00 61 1016.9
20260507110109 15 213 3.2 9.7 0.00 0.00 0.00 60 1016.9
20260507104554 14 133 1.6 8.0 0.00 0.00 0.00 63 1017.0
20260507103052 14 194 3.2 11.3 0.00 0.00 0.00 64 1017.0
20260507101557 13 331 1.6 9.7 0.00 0.00 0.00 66 1017.1
20260507100048 13 49 3.2 14.5 0.00 0.00 0.00 67 1017.1
20260507094547 13 167 4.8 11.3 0.00 0.00 0.00 66 1017.2
20260507093049 12 201 1.6 14.5 0.00 0.00 0.00 70 1017.1
20260507091538 12 233 0.0 9.7 0.00 0.00 0.00 70 1017.2
20260507090038 11 230 0.0 12.9 0.00 0.00 0.00 73 1017.3
20260507084535 11 171 3.2 8.0 0.00 0.00 0.00 74 1017.4
20260507083034 11 210 6.4 12.9 0.00 0.00 0.00 73 1017.3
20260507081542 11 191 0.0 8.0 0.00 0.00 0.00 74 1017.2
20260507080030 11 12 0.0 8.0 0.00 0.00 0.00 75 1017.3
20260507074545 11 165 0.0 0.0 0.00 0.00 0.00 76 1017.2
20260507073027 10 27 0.0 0.0 0.00 0.00 0.00 77 1017.2
20260507071507 10 33 0.0 0.0 0.00 0.00 0.00 78 1017.2
20260507070005 10 124 0.0 0.0 0.00 0.00 0.00 78 1017.2
20260507064600 9 221 0.0 0.0 0.00 0.00 0.00 81 1017.2
20260507063058 8 94 0.0 0.0 0.00 0.00 0.00 82 1017.1
20260507061554 7 91 0.0 0.0 0.00 0.00 0.00 86 1017.1